Weather History for Newberry, SC

Change the Weather History Date:

Friday, December 7, 2012

  Actual Average (KFDW) Record (KFDW)
Temperature  
Mean Temperature 52 °F -  
Max Temperature 57 °F 57 °F 68 °F (2011)
Min Temperature 46 °F 33 °F 24 °F (2010)
Degree Days  
Heating Degree Days 14    
Growing Degree Days 2 (Base 50)    
Moisture  
Dew Point 42 °F    
Average Humidity 74    
Maximum Humidity 100    
Minimum Humidity 62    
Precipitation  
Precipitation 0.00 in - - ()
Sea Level Pressure  
Sea Level Pressure 30.12 in    
Wind  
Wind Speed 5 mph (NNE)    
Max Wind Speed 9 mph    
Max Gust Speed -    
Visibility 9 miles    
Events Fog , Rain    
Averages and records for this station are not official NWS values.
T = Trace of Precipitation, MM = Missing Value Source: NWS Daily Summary

Daily Weather History Graph

Daily Weather History Graph

Search for Another Location

Airport:

Trip Planner

Search our weather history database for the weather conditions in past years. The results will help you decide how hot, cold, wet, or windy it might be!

Date:

Astronomy

Dec. 07, 2012 Rise Set
Actual Time 7:19 AM EST 5:16 PM EST
Civil Twilight 6:52 AM EST 5:44 PM EST
Nautical Twilight 6:21 AM EST 6:15 PM EST
Astronomical Twilight 5:50 AM EST 6:45 PM EST
Moon 12:52 AM EST (12/7) 12:59 PM EST (12/7)
Length of Visible Light 10h 51m
Length of Day
9h 56m
Last Quarter, 39% of the Moon is Illuminated
Dec 7
Last Quarter
Dec 13
New
Dec 20
First Quarter
Dec 28
Full
Jan 4
Last Quarter

Hourly Weather History & Observations

Time (EST) Temp. Windchill Dew Point Humidity Pressure Visibility Wind Dir Wind Speed Gust Speed Precip Events Conditions
12:15 AM 46.4 °F 42.9 °F 35.6 °F 66% 30.21 in 10.0 mi NE 6.9 mph - N/A   Overcast
12:35 AM 46.4 °F 42.9 °F 35.6 °F 66% 30.21 in 10.0 mi NE 6.9 mph - N/A   Overcast
12:55 AM 46.4 °F 43.5 °F 35.6 °F 66% 30.20 in 10.0 mi NE 5.8 mph - N/A   Overcast
1:15 AM 48.2 °F - 35.6 °F 62% 30.20 in 10.0 mi NE 5.8 mph - N/A   Overcast
1:35 AM 48.2 °F - 35.6 °F 62% 30.19 in 10.0 mi NE 6.9 mph - N/A   Overcast
1:55 AM 48.2 °F - 37.4 °F 66% 30.19 in 10.0 mi NE 6.9 mph - N/A   Overcast
2:15 AM 48.2 °F - 35.6 °F 62% 30.19 in 10.0 mi NE 6.9 mph - N/A   Overcast
2:35 AM 48.2 °F - 35.6 °F 62% 30.19 in 10.0 mi NNE 5.8 mph - N/A   Overcast
2:55 AM 48.2 °F - 35.6 °F 62% 30.18 in 10.0 mi NNE 6.9 mph - N/A   Overcast
3:15 AM 48.2 °F - 35.6 °F 62% 30.17 in 10.0 mi NE 5.8 mph - N/A   Overcast
3:35 AM 48.2 °F - 35.6 °F 62% 30.17 in 10.0 mi NNE 6.9 mph - N/A   Overcast
3:55 AM 48.2 °F - 35.6 °F 62% 30.17 in 10.0 mi NNE 5.8 mph - N/A   Overcast
4:15 AM 48.2 °F - 37.4 °F 66% 30.16 in 10.0 mi NNE 8.1 mph - N/A   Overcast
4:35 AM 48.2 °F - 37.4 °F 66% 30.16 in 10.0 mi NNE 8.1 mph - N/A   Overcast
4:55 AM 48.2 °F - 37.4 °F 66% 30.15 in 10.0 mi NNE 6.9 mph - N/A   Overcast
5:15 AM 48.2 °F - 37.4 °F 66% 30.15 in 10.0 mi NNE 8.1 mph - N/A   Overcast
5:35 AM 48.2 °F - 37.4 °F 66% 30.15 in 10.0 mi North 6.9 mph - N/A   Overcast
5:55 AM 48.2 °F - 37.4 °F 66% 30.15 in 10.0 mi NE 6.9 mph - N/A   Overcast
6:15 AM 48.2 °F - 37.4 °F 66% 30.16 in 10.0 mi NNE 5.8 mph - N/A   Overcast
6:35 AM 48.2 °F - 37.4 °F 66% 30.16 in 10.0 mi North 4.6 mph - N/A   Overcast
6:55 AM 48.2 °F - 37.4 °F 66% 30.17 in 10.0 mi NNE 5.8 mph - N/A   Overcast
7:15 AM 48.2 °F - 37.4 °F 66% 30.16 in 10.0 mi NNE 6.9 mph - N/A   Overcast
7:35 AM 48.2 °F - 37.4 °F 66% 30.17 in 10.0 mi NNE 4.6 mph - N/A   Overcast
7:55 AM 50.0 °F - 37.4 °F 62% 30.17 in 10.0 mi NNE 4.6 mph - N/A   Overcast
8:15 AM 50.0 °F - 37.4 °F 62% 30.17 in 10.0 mi NNE 4.6 mph - N/A   Overcast
8:35 AM 50.0 °F - 37.4 °F 62% 30.17 in 10.0 mi North 5.8 mph - N/A   Overcast
8:55 AM 50.0 °F - 37.4 °F 62% 30.17 in 10.0 mi North 6.9 mph - N/A   Overcast
9:15 AM 50.0 °F - 37.4 °F 62% 30.17 in 10.0 mi NNE 8.1 mph - N/A   Overcast
9:35 AM 51.8 °F - 39.2 °F 62% 30.17 in 10.0 mi NNE 9.2 mph - N/A   Overcast
9:55 AM 51.8 °F - 41.0 °F 67% 30.16 in 10.0 mi NE 5.8 mph - N/A   Overcast
10:15 AM 51.8 °F - 41.0 °F 67% 30.17 in 10.0 mi NE 8.1 mph - N/A   Overcast
10:35 AM 51.8 °F - 42.8 °F 71% 30.17 in 10.0 mi NE 8.1 mph - N/A   Overcast
10:55 AM 51.8 °F - 42.8 °F 71% 30.16 in 10.0 mi ENE 5.8 mph - N/A   Overcast
11:15 AM 51.8 °F - 42.8 °F 71% 30.15 in 10.0 mi NNE 6.9 mph - N/A   Overcast
11:35 AM 53.6 °F - 42.8 °F 67% 30.14 in 10.0 mi ESE 3.5 mph - N/A   Overcast
11:55 AM 53.6 °F - 42.8 °F 67% 30.13 in 10.0 mi NE 3.5 mph - N/A   Overcast
12:15 PM 53.6 °F - 44.6 °F 72% 30.11 in 7.0 mi ENE 3.5 mph - N/A Rain Light Rain
12:35 PM 53.6 °F - 44.6 °F 72% 30.11 in 10.0 mi North 4.6 mph - N/A   Overcast
12:55 PM 53.6 °F - 44.6 °F 72% 30.10 in 10.0 mi NNE 4.6 mph - N/A   Overcast
1:15 PM 55.4 °F - 44.6 °F 67% 30.09 in 10.0 mi Calm Calm - N/A   Overcast
1:35 PM 55.4 °F - 46.4 °F 72% 30.08 in 10.0 mi NNE 3.5 mph - N/A   Overcast
1:55 PM 55.4 °F - 46.4 °F 72% 30.07 in 10.0 mi North 3.5 mph - N/A   Overcast
2:15 PM 55.4 °F - 46.4 °F 72% 30.06 in 10.0 mi NNE 4.6 mph - N/A   Overcast
2:35 PM 55.4 °F - 46.4 °F 72% 30.05 in 10.0 mi NW 4.6 mph - N/A   Overcast
2:55 PM 57.2 °F - 46.4 °F 67% 30.05 in 10.0 mi NNW 3.5 mph - N/A   Overcast
3:15 PM 55.4 °F - 46.4 °F 72% 30.05 in 10.0 mi North 4.6 mph - N/A   Overcast
3:35 PM 55.4 °F - 48.2 °F 77% 30.04 in 10.0 mi North 4.6 mph - N/A   Overcast
3:55 PM 55.4 °F - 48.2 °F 77% 30.04 in 10.0 mi North 4.6 mph - N/A   Overcast
4:15 PM 55.4 °F - 50.0 °F 82% 30.05 in 10.0 mi NNE 3.5 mph - N/A   Overcast
4:35 PM 55.4 °F - 50.0 °F 82% 30.05 in 10.0 mi Calm Calm - N/A   Overcast
4:55 PM 55.4 °F - 50.0 °F 82% 30.06 in 10.0 mi North 3.5 mph - N/A   Overcast
5:15 PM 55.4 °F - 50.0 °F 82% 30.06 in 10.0 mi Calm Calm - N/A   Overcast
5:55 PM 55.4 °F - 50.0 °F 82% 30.06 in 10.0 mi Calm Calm - N/A   Overcast
6:15 PM 55.4 °F - 50.0 °F 82% 30.06 in 10.0 mi Calm Calm - N/A   Overcast
7:15 PM 51.8 °F - 48.2 °F 88% 30.06 in 10.0 mi SE 3.5 mph - N/A   Scattered Clouds
7:35 PM 51.8 °F - 48.2 °F 88% 30.06 in 10.0 mi Calm Calm - N/A   Clear
7:55 PM 51.8 °F - 48.2 °F 88% 30.06 in 10.0 mi ESE 3.5 mph - N/A   Clear
8:15 PM 50.0 °F - 48.2 °F 94% 30.06 in 10.0 mi ESE 3.5 mph - N/A   Clear
8:35 PM 50.0 °F - 50.0 °F 100% 30.06 in 10.0 mi Calm Calm - N/A   Clear
8:55 PM 50.0 °F - 48.2 °F 94% 30.06 in 7.0 mi Calm Calm - N/A   Clear
9:15 PM 48.2 °F - 48.2 °F 100% 30.06 in 5.0 mi Calm Calm - N/A   Clear
9:35 PM 46.4 °F - 46.4 °F 100% 30.06 in 4.0 mi Calm Calm - N/A   Clear
9:55 PM 46.4 °F - 46.4 °F 100% 30.06 in 0.8 mi Calm Calm - N/A   Mist
10:15 PM 46.4 °F - 46.4 °F 100% 30.06 in 2.0 mi Calm Calm - N/A   Scattered Clouds
10:35 PM 46.4 °F - 46.4 °F 100% 30.07 in 5.0 mi Calm Calm - N/A   Mostly Cloudy
10:55 PM 48.2 °F - 48.2 °F 100% 30.08 in 0.5 mi Calm Calm - N/A Fog Fog
11:35 PM 50.0 °F - 50.0 °F 100% 30.08 in 0.2 mi Calm Calm - N/A Fog Fog
11:55 PM 48.2 °F - 48.2 °F 100% 30.08 in 0.2 mi Calm Calm - N/A Fog Fog